Flag for Netherlands Weather past 2 weeks in Maastricht, Netherlands

Now
54 °F

Passing clouds.


Feels Like: 52 °F
Forecast: 50 / 70 °F
Wind: 7 mph from Southwest

Location: Maastricht Airport Zuid Limburg

Current Time: Jul 30, 2015 at 2:13:04 AM

Latest Report: Jul 30, 2015 at 1:55 AM


Visibility: N/A

Pressure: 29.95 "Hg

Humidity: 77%

Dew point: 46 °F

Location of MaastrichtLocation

Historic Weather in Maastricht — Graph

°F

Maastricht temperature yesterday

Maximum temperature yesterday: 66 °F (at 1:55 PM)
Minimum temperature yesterday: 52 °F (at 3:25 AM)
Average temperature yesterday: 59 °F

Past Weeks' High & Low Weather Summary

 TemperatureHumidityPressure
High88 °F (Jul 17, 3:25 PM)100% (Jul 15, 1:25 AM)30.12 "Hg (Jul 15, 1:25 AM)
Low50 °F (Jul 26, 1:55 AM)38% (Jul 17, 3:25 PM)29.50 "Hg (Jul 25, 6:55 AM)
Average66 °F74%29.90 "Hg
* Reported Jul 15 12:25 AM — Jul 30 12:55 AM, Maastricht, Weather by CustomWeather, © 2015

Note: Actual official high and low records may vary slightly from our data, if they occured in-between our weather recording intervals... More about our weather records

Advertising

Maastricht weather history for previous 24 hours

 ConditionsComfort  
Time TempWeatherWind HumidityBarometerVisibility
12:55 AM
Thu, Jul 30
55 °FClear.6 mph72%29.92 "HgN/A
12:25 AM54 °FClear.5 mph77%29.92 "HgN/A
11:55 PM
Wed, Jul 29
55 °FClear.5 mph67%29.92 "HgN/A
11:25 PM57 °FClear.5 mph67%29.92 "HgN/A
10:55 PM59 °FClear.5 mph63%29.92 "HgN/A
10:25 PM59 °FClear.2 mph63%29.92 "HgN/A
9:55 PM59 °FClear.5 mph59%29.92 "HgN/A
9:25 PM61 °FClear.7 mph55%29.89 "HgN/A
8:55 PM61 °FClear.7 mph55%29.89 "HgN/A
8:25 PM63 °FClear.9 mph49%29.89 "HgN/A
7:55 PM63 °FClear.8 mph49%29.89 "HgN/A
7:25 PM64 °FClear.12 mph43%29.86 "HgN/A
6:55 PM64 °FMild.14 mph43%29.86 "HgN/A
6:25 PM64 °FClear.13 mph46%29.86 "HgN/A
5:55 PM64 °FClear.15 mph49%29.86 "HgN/A
5:25 PM64 °FClear.15 mph49%29.83 "HgN/A
4:55 PM66 °FClear.14 mph46%29.83 "HgN/A
4:25 PM64 °FScattered clouds.13 mph56%29.83 "HgN/A
3:55 PM64 °FPartly sunny.9 mph56%29.80 "HgN/A
3:25 PM63 °FLight rain. Scattered clouds.12 mph68%29.80 "HgN/A
2:55 PM63 °FPassing clouds.9 mph73%29.80 "HgN/A
2:25 PM64 °FPassing clouds.12 mph46%29.80 "HgN/A
1:55 PM66 °FPassing clouds.14 mph46%29.80 "HgN/A
1:25 PM61 °FPartly sunny.10 mph55%29.80 "HgN/A
12:55 PM61 °FBroken clouds.15 mph55%29.77 "HgN/A
12:25 PM64 °FScattered clouds.14 mph52%29.77 "HgN/A
11:55 AM63 °FScattered clouds.13 mph56%29.77 "HgN/A
11:25 AM63 °FScattered clouds.16 mph59%29.77 "HgN/A
10:55 AM59 °FScattered clouds.17 mph68%29.77 "HgN/A
10:25 AM61 °FBroken clouds.14 mph68%29.77 "HgN/A
9:55 AM59 °FBroken clouds.16 mph77%29.77 "HgN/A
9:25 AM57 °FBroken clouds.14 mph77%29.77 "HgN/A
8:55 AM55 °FScattered clouds.16 mph88%29.77 "HgN/A
8:25 AM55 °FPartly sunny.16 mph82%29.77 "HgN/A
7:55 AM54 °FOvercast.14 mph88%29.77 "HgN/A
7:25 AM54 °FPassing clouds.14 mph88%29.77 "HgN/A
6:55 AM54 °FClear.14 mph88%29.77 "HgN/A
5:55 AM54 °FClear.15 mph88%29.80 "HgN/A
4:55 AM54 °FMostly cloudy.17 mph82%29.80 "HgN/A
4:25 AM54 °FOvercast.16 mph82%29.80 "HgN/A
3:55 AM54 °FPassing clouds.15 mph82%29.80 "HgN/A
3:25 AM52 °FCool.15 mph88%29.80 "HgN/A
2:55 AM54 °FPassing clouds.15 mph82%29.80 "HgN/A
2:25 AM54 °FCool.17 mph82%29.80 "HgN/A
Weather by CustomWeather, © 2015

See weather overviewHow to use our weather pages